Regional Weather Roundup
Issued by NWS

Home | Current Version | Previous Version | Graphics & Text | Print | Product List | Glossary On
Versions: 1 2 3 4 5 6 7 8 9 10 11 12 13 14 15 16 17 18 19 20 21 22 23 24 25 26 27 28 29 30 31 32 33 34 35 36 37 38 39 40 41 42 43 44 45 46 47 48 49 50
000
ASUS43 KIND 280609
RWRIN

WEATHER ROUNDUP FOR INDIANA
NATIONAL WEATHER SERVICE INDIANAPOLIS IN
200 AM EDT SUN MAY 28 2017

NOTE: "FAIR" INDICATES FEW OR NO CLOUDS BELOW 12,000 FEET WITH NO
SIGNIFICANT WEATHER AND/OR OBSTRUCTIONS TO VISIBILITY.

* - STATION DOES NOT REPORT WEATHER SUCH AS PRECIPITATION OR FOG.

+ - STATION NOT QUALITY CONTROLLED BY THE NATIONAL WEATHER SERVICE.
    USE DATA WITH CAUTION...ESPECIALLY DEWPOINT AND RELATIVE
    HUMIDITY OBSERVATIONS.

INZ001>003-010>013-019-020-280700-
NORTHWEST INDIANA

CITY           SKY/WX    TMP DP  RH WIND       PRES   REMARKS
GARY /AIRPORT/ CLOUDY    58  56  94 CALM      29.83F
KNOX *+        CLOUDY    59  59 100 CALM      29.81S
LA PORTE +     CLOUDY    61  58  91 N3        29.83S
6HR MIN TEMP:  60; 6HR MAX TEMP:  70;

MICHIGAN CITY+ CLOUDY    55  55 100 CALM      29.83S
MONTICELLO +   CLOUDY    60  58  95 CALM      29.80S FOG
6HR MIN TEMP:  59; 6HR MAX TEMP:  70;

RENSSELAER +   CLOUDY    61  59  94 N3        29.81F
VALPARAISO     CLOUDY    61  59  93 NE3       29.83S
6HR MIN TEMP:  61; 6HR MAX TEMP:  72;


$$

LMZ046-743>745-280700-
SOUTHERN LAKE MICHIGAN

STATION/POSITION TIME  TEMP    WIND        PRES    WAVE
                       AIR SEA DIR/SP/G            HT
                 (UTC) (F)     (DEG/KT/KT) (MB)    (FT)
BURNS HARBOR     0540   60        CALM     1010.5S
MICHIGAN CITY    0540   59      60/  3/  3   N/A
5NW MICH CITY    0600   57 56   70/  4/  4   N/A     0

$$

INZ004-005-014>016-021>024-280700-
NORTH CENTRAL INDIANA

CITY           SKY/WX    TMP DP  RH WIND       PRES   REMARKS
GOSHEN         CLOUDY    63  56  78 SE7       29.81F
6HR MIN TEMP:  63; 6HR MAX TEMP:  73;

LOGANSPORT +   CLOUDY    61  61 100 CALM      29.82S
PERU/GRISSOM   CLOUDY    62  62 100 E6        29.80R
6HR MIN TEMP:  60; 6HR MAX TEMP:  73; 6HR PCP: TRACE;

ROCHESTER +    CLOUDY    64  63  94 SE5       29.82S
SOUTH BEND     CLOUDY    60  58  92 N5        29.83F
6HR MIN TEMP:  58; 6HR MAX TEMP:  71;

WARSAW +       MOCLDY    61  59  94 SE3       29.82S

$$

INZ006>009-017-018-025>027-280700-
NORTHEAST INDIANA

CITY           SKY/WX    TMP DP  RH WIND       PRES   REMARKS
ANGOLA *+      CLEAR     61  50  67 E3        29.83S
AUBURN +       CLEAR     59  54  82 CALM      29.84R
FORT WAYNE     MOCLDY    62  57  83 N3        29.83F
6HR MIN TEMP:  60; 6HR MAX TEMP:  73;

HUNTINGTON +   CLOUDY    61  59  96 E3        29.82R
KENDALLVILLE + CLOUDY    60  56  85 E3        29.85R

$$

INZ028-029-035-036-043>045-051>053-280700-
WEST CENTRAL INDIANA

CITY           SKY/WX    TMP DP  RH WIND       PRES   REMARKS
CRAWFORDSVL +  CLOUDY   -22 -22 100 E3        29.79F FOG
6HR MIN TEMP: -23; 6HR MAX TEMP: -20; 6HR PCP:  0.01;

GREENCASTLE +  CLOUDY    63  63 100 CALM      29.80F
LAFAYETTE      CLOUDY    60  60 100 CALM      29.79F
6HR MIN TEMP:  59; 6HR MAX TEMP:  70;

TERRE HAUTE    MOCLDY    68  63  84 E5        29.78F
6HR MIN TEMP:  66; 6HR MAX TEMP:  76;


$$

INZ030>032-037>040-046>048-054>057-064-065-280700-
CENTRAL INDIANA

CITY           SKY/WX    TMP DP  RH WIND       PRES   REMARKS
CP ATTERBURY + CLOUDY    63  61  94 CALM      29.81R
FISHERS *+     CLOUDY    61  61 100 CALM      29.80S
FRANKFORT +    CLOUDY    65  63  93 CALM      29.82F
6HR MIN TEMP:  63; 6HR MAX TEMP:  74;

GREENWOOD *+   CLOUDY    65  62  90 CALM      29.81S
INDIANAPOLIS   PTCLDY    67  61  81 E3        29.78F
6HR MIN TEMP:  65; 6HR MAX TEMP:  75;

-EAGLE CREEK   CLOUDY    64  61  90 CALM      29.78F
6HR MIN TEMP:  64; 6HR MAX TEMP:  75;

KOKOMO +       PTCLDY    63  61  93 N3        29.82R
6HR MIN TEMP:  61; 6HR MAX TEMP:  73;

MARION +       CLOUDY    63  61  94 CALM      29.82R
MT COMFORT *+    N/A    N/A N/A N/A MISG        N/A
SHELBYVILLE    PTCLDY    66  62  87 N3        29.79F
6HR MIN TEMP:  65; 6HR MAX TEMP:  79;

ZIONSVILLE +   PTCLDY    60  60  98 CALM      29.80F
6HR MIN TEMP:  60; 6HR MAX TEMP:  72;


$$

INZ033-034-041-042-049-050-058-059-280700-
EAST CENTRAL INDIANA

CITY           SKY/WX    TMP DP  RH WIND       PRES   REMARKS
MUNCIE         CLEAR     66  63  90 CALM      29.80F
6HR MIN TEMP:  65; 6HR MAX TEMP:  74;

RICHMOND +     PTCLDY    64  63  94 CALM      29.81F

$$

INZ060-061-067>069-081>083-085>088-280700-
SOUTHWEST INDIANA

CITY           SKY/WX    TMP DP  RH WIND       PRES   REMARKS
EVANSVILLE     CLOUDY    68  60  75 MISG      29.82F
6HR MIN TEMP:  68; 6HR MAX TEMP:  77;

HUNTINGBURG *+ CLOUDY    66  63  90 S13       29.83R
6HR MIN TEMP:  64; 6HR MAX TEMP:  70; 6HR PCP: TRACE;

WASHINGTON +   CLOUDY    66  63  90 S5        29.79S
6HR MIN TEMP:  66; 6HR MAX TEMP:  78;


$$

INZ062-063-066-070>080-084-089>092-280700-
SOUTH CENTRAL AND SOUTHEAST INDIANA

CITY           SKY/WX    TMP DP  RH WIND       PRES   REMARKS
BEDFORD +      CLOUDY    64  61  88 CALM      29.80R
BLOOMINGTON    MOCLDY    67  63  87 S3        29.79F
6HR MIN TEMP:  67; 6HR MAX TEMP:  77;

MADISON *+     CLOUDY    63  61  94 S3        29.82F
NORTH VERNON + CLOUDY    64  61  88 CALM      29.80F
SEYMOUR +      CLOUDY    66  63  88 CALM      29.81F

$$





USA.gov is the U.S. government's official web portal to all federal, state and local government web resources and services.